[Iaude] MPEC C30: 2024 CB [a=2.82,e=0.65,i=3.6,H=26.0]

mpec at marsden.cfa.harvard.edu mpec at marsden.cfa.harvard.edu
Fri Feb 2 15:58:03 EST 2024


M.P.E.C. 2024-C30                              Issued 2024 February 2, 20:56 UT

     The Minor Planet Electronic Circulars contain information on unusual
         minor planets, routine data on comets and natural satellites,
         and occasional editorial announcements.  They are published
    on behalf of Division F of the International Astronomical Union by the
          Minor Planet Center, Smithsonian Astrophysical Observatory,
                          Cambridge, MA 02138, U.S.A.
			  
             Prepared using the Tamkin Foundation Computer Network

                              MPC at CFA.HARVARD.EDU
            URL https://www.minorplanetcenter.net/    ISSN 1523-6714

                                    2024 CB                                     


Observations:
     K24C00B* C2024 02 01.23049804 54 39.914-02 58 53.83         20.50wXEC030F52
     K24C00B  C2024 02 01.25769104 55 20.738-03 06 34.82         20.45wXEC030F52
     K24C00B  C2024 02 01.27130904 55 41.005-03 10 22.84         20.02wXEC030F52
     K24C00B KC2024 02 01.40754204 59 10.618-03 49 21.17         20.22GVEC030F52
     K24C00B HB2024 02 01.84915 05 12 09.38 -06 03 32.3          20.5 GVEC030204
     K24C00B KB2024 02 01.86793 05 12 41.68 -06 09 21.3                VEC030204
     K24C00B  C2024 02 02.04068805 18 05.01 -06 57 05.0                WEC030X09
     K24C00B  C2024 02 02.05153805 18 24.02 -07 00 31.2                WEC030X09
     K24C00B KC2024 02 02.79054 05 43 05.18 -11 11 08.2          20.0 GVEC030104
     K24C00B KC2024 02 02.79216 05 43 08.50 -11 11 41.9                VEC030104
     K24C00B KC2024 02 02.84007805 44 44.74 -11 28 11.6          19.9 GVEC030L01
     K24C00B KC2024 02 02.84155905 44 47.76 -11 28 42.7          19.7 GVEC030L01
     K24C00B KC2024 02 02.84304005 44 50.78 -11 29 12.9          19.9 GVEC030L01
     K24C00B KC2024 02 02.84600105 44 56.78 -11 30 13.4          19.8 GVEC030L01

Observer details:
104 San Marcello Pistoiese.  Observers P. Bacci, M. Maestripieri.  Measurer P.
    Bacci.  0.60-m f/4.0 reflector + CCD.
204 Schiaparelli Observatory.  Observer L. Buzzi.  0.84-m f/3.5 reflector +
    CMO.
F52 Pan-STARRS 2, Haleakala.  Observers J. Herman, T. Lowe, P. Minguez, A.
    Schultz, I. Smith.  Measurers K. Chambers, T. de Boer, J. Fairlamb, H.
    Gao, M. Huber, C.-C. Lin, E. Magnier, Y. Ramanjooloo, R. Wainscoat, R.
    Weryk.  1.8-m Ritchey-Chretien + CCD.
L01 Visnjan Observatory, Tican.  Observer K. Korlevic.  1.0-m f/2.9 reflector
    + CCD.
X09 Deep Random Survey, Rio Hurtado.  Observers A. Schnabel, D. Ruhela.
    Measurer S. Deen.  0.43-m reflector + CMOS.

Orbital elements:
2024 CB                                                  Earth MOID = 0.0138 AU
Epoch 2023 Sept. 13.0 TT = JDT 2460200.5                MPC                     
M 331.24204              (2000.0)            P               Q                  
n   0.20767528     Peri.  187.73701     -0.59799712     -0.79956625             
a   2.8240963      Node   299.00661     +0.73872386     -0.52291196             
e   0.6466080      Incl.    3.64613     +0.31094454     -0.29539278             
P   4.75           H   26.04          G   0.15           U   8                  
Residuals in seconds of arc
240201 F52  0.6-  0.4+    240201 204  0.2+  0.2-    240202 L01  0.0   0.3+
240201 F52  0.0   0.1-    240202 X09  0.6+  0.3-    240202 L01  0.1+  0.4-
240201 F52 (3.2-  3.2+)   240202 X09  0.0   0.1+    240202 L01  0.1+  0.2-
240201 F52  0.0   0.0     240202 104  0.0   0.8+    240202 L01  0.3-  0.1+
240201 204  0.1-  0.3+    240202 104  0.6+  0.5+

Ephemeris:
2024 CB                  a,e,i = 2.82, 0.65, 4                   q = 0.9980
Date    TT    R. A. (2000) Decl.     Delta      r    Elong.  Phase     V
2024 01 03    02 14 29.1 +24 43 39   0.1525  1.0622   117.4    55.3    24.1
...
2024 01 18    02 34 36.0 +20 23 47   0.08666 1.0106   105.6    69.6    23.2
...
2024 01 26    03 16 13.5 +13 54 36   0.05154 0.9992   105.2    72.0    22.1
...
2024 02 01    04 48 30.0 -01 53 15   0.02944 0.9986   116.3    62.1    20.6
2024 02 02    05 16 46.3 -06 46 09   0.02703 0.9992   120.1    58.5    20.3
2024 02 03    05 50 29.5 -12 18 04   0.02533 1.0000   124.2    54.6    20.0
...
2024 02 09    09 48 26.5 -33 50 22   0.03322 1.0086   130.9    47.7    20.5
...
2024 02 17    11 49 52.5 -32 13 10   0.06622 1.0301   128.1    49.0    22.0
...
2024 03 03    12 33 37.4 -27 31 07   0.1378  1.0980   138.3    36.9    23.4

A. U. Tomatic                (C) Copyright 2024 MPC           M.P.E.C. 2024-C30





More information about the Iaude mailing list